www.pogodaiklimat.ru

Погода и климат >> Архив погоды >> Австралия >> Charleville Aero


ПОГОДА в Charleville Aero

  • Прогноз погоды в Charleville Aero
  • Монитор погоды в Charleville Aero
  • Климат города

АРХИВ ПОГОДЫ в Charleville Aero

Время (UTC), дата Ветер
(напр.,м/с)
 
Видим.   Явления Облачность Т
(С)
Тd
(С)
f
(%)
Тe
(С)
Тes
(С)
Комфортность P
(гПа)
Po
(гПа)
Тmin
(С)
Tmax
(С)
R
(мм)
R24
(мм)
S
(см)
08 14.10 Ю 6 н/о н/о +28.6 +2.0 18 +26 +26 жарко 1011.4 976.8
09 14.10 Ю 4 н/о н/о +26.6 +2.5 21 +25 +25 комфорт 1012.6 977.9
11 14.10 Ю 4 н/о н/о +23.4 +2.8 26 +23 +23 комфорт 1013.6 978.9
12 14.10 Ю 3 н/о н/о +22.1 +2.2 27 +22 +22 комфорт 1013.8 979.1
14 14.10 ЮВ 2 н/о н/о +18.5 +1.9 33 +19 +19 1013.2 978.5 +31.6
15 14.10 ЮВ 4 н/о н/о +17.4 +2.2 36 +17 +17 1012.8 978.1
17 14.10 В 3 н/о н/о +19.0 +8.1 49 +20 +20 1012.3 977.6
18 14.10 ЮВ 2 н/о н/о +16.7 +7.6 55 +17 +17 1012.0 977.4
20 14.10 ЮВ 3 н/о н/о +16.1 +10.0 67 +16 +16 1013.3 978.6
21 14.10 В 5 н/о н/о +20.0 +13.2 65 +22 +22 комфорт 1014.2 979.5
23 14.10 В 7 н/о 1/1 600 м
[]
+23.9 +12.8 50 +26 +28 жарко 1015.5 980.7
00 15.10 В 7 н/о н/о +24.8 +12.7 47 +27 +27 жарко 1015.4 980.6
02 15.10 В 6 н/о 10/10 1500 м
[]
+26.0 +10.6 38 +27 +27 жарко 1013.6 978.9 +15.9
03 15.10 ЮВ 7 н/о н/о +26.5 +10.2 36 +27 +27 жарко 1012.9 978.2
05 15.10 ЮВ 8 н/о 10/10 1500 м
[]
+27.5 +8.9 31 +28 +28 жарко 1011.7 977.1
06 15.10 ЮВ 9 н/о н/о +25.6 +10.6 39 +27 +27 жарко 1012.0 977.4
08 15.10 В 10 н/о 5/5 1500 м
[]
+22.1 +12.4 54 +25 +25 комфорт 1014.1 979.4
09 15.10 В 9 н/о н/о +21.3 +11.3 53 +23 +23 комфорт 1014.9 980.2
11 15.10 В 6 н/о н/о +19.4 +12.9 66 +20 +20 1016.0 981.2
12 15.10 В 10 н/о н/о +19.1 +12.4 65 +19 +19 1016.3 981.5
14 15.10 В 6 н/о 10/10 600 м
[]
+18.7 +12.5 67 +19 +19 1016.3 981.5 +29.1
15 15.10 В 6 н/о н/о +18.7 +12.2 66 +19 +19 1015.8 981.0
17 15.10 В 6 н/о 10/10 600 м
[]
+18.4 +12.4 68 +18 +18 1014.5 979.8
18 15.10 В 6 н/о н/о +18.2 +12.6 70 +18 +18 1014.4 979.7
20 15.10 В 5 н/о 9/9 600 м
[]
+18.1 +12.8 71 +18 +18 1016.0 981.2
21 15.10 В 6 н/о н/о +18.2 +12.9 71 +18 +18 1016.7 981.9
23 15.10 ЮВ 7 н/о 10/10 600 м
[]
+19.3 +12.8 66 +20 +20 1017.4 982.6
00 16.10 В 5 н/о н/о +20.0 +12.7 63 +22 +22 комфорт 1017.4 982.6
02 16.10 В 7 н/о 10/10 1000 м
[]
+22.3 +12.0 52 +25 +25 комфорт 1015.8 981.0 +17.7
03 16.10 ЮВ 5 н/о н/о +22.5 +12.4 53 +25 +25 комфорт 1015.0 980.3
05 16.10 В 9 7000 м 10/10 300 м
[]
+20.0 +15.2 74 +22 +22 комфорт 1014.5 979.8
06 16.10 ЮВ 9 н/о н/о +20.8 +14.5 67 +23 +23 комфорт 1014.4 979.7
08 16.10 ЮВ 8 н/о 10/10 600 м
[]
+20.4 +13.6 65 +22 +22 комфорт 1015.0 980.3
09 16.10 В 8 н/о н/о +20.2 +13.6 66 +22 +22 комфорт 1015.7 980.9
11 16.10 ЮВ 6 н/о 10/10 600 м
[]
+19.8 +14.6 72 +21 +21 комфорт 1016.4 981.6
12 16.10 В 7 н/о н/о +19.9 +14.7 72 +22 +22 комфорт 1016.7 981.9
14 16.10 ЮВ 7 н/о в посл. час дождь {туман} 8/8 600 м
[]
+17.2 +13.7 80 +16 +16 1016.4 981.6 +23.6
15 16.10 В 5 н/о н/о +17.8 +13.7 77 +17 +17 1015.8 981.0
17 16.10 В 4 н/о {туман} н/о +17.4 +13.3 77 +17 +17 1014.2 979.5
18 16.10 В 4 н/о н/о +16.9 +13.4 80 +17 +17 1014.3 979.6
20 16.10 ЮВ 5 н/о 10/10 600 м
[]
+17.5 +13.2 76 +17 +17 1015.4 980.6
21 16.10 В 5 н/о н/о +18.1 +13.4 74 +18 +18 1016.3 981.5
23 16.10 В 7 н/о 10/10 600 м
[]
+20.1 +12.8 63 +22 +22 комфорт 1017.7 982.9
00 17.10 В 7 н/о н/о +20.1 +13.3 65 +22 +22 комфорт 1017.8 983.0
02 17.10 В 4 9000 м в посл. час дождь {туман} 10/10 300 м
[]
+18.9 +15.6 81 +20 +20 1016.8 982.0 +16.7
03 17.10 В 8 н/о н/о +20.9 +14.8 68 +24 +24 комфорт 1015.8 981.0
05 17.10 В 8 н/о {туман} 10/10 600 м
[]
+21.4 +14.8 66 +24 +24 комфорт 1014.4 979.7
06 17.10 ЮВ 8 н/о н/о +21.6 +14.5 64 +25 +25 комфорт 1014.3 979.6
08 17.10 ЮВ 9 н/о в посл. час дождь {туман} 10/10 600 м
[]
+20.6 +14.9 70 +23 +23 комфорт 1015.1 980.4
09 17.10 ЮВ 7 н/о н/о +20.3 +15.1 72 +23 +23 комфорт 1015.9 981.1
11 17.10 ЮВ 6 н/о {туман} 10/10 300 м
[]
+19.4 +15.3 77 +21 +21 комфорт 1017.0 982.2
12 17.10 ЮВ 5 н/о н/о +19.2 +15.5 79 +21 +21 комфорт 1017.0 982.2
14 17.10 ЮВ 6 н/о 10/10 300 м
[]
+18.9 +16.3 85 +20 +20 1016.4 981.6 +22.1
15 17.10 В 4 н/о н/о +19.1 +16.3 84 +21 +21 комфорт 1015.8 981.0
17 17.10 В 5 н/о 10/10 300 м
[]
+19.5 +16.3 82 +21 +21 комфорт 1014.8 980.1
18 17.10 В 6 н/о н/о +19.6 +16.3 81 +21 +21 комфорт 1014.9 980.2
20 17.10 В 5 н/о 10/10 300 м
[]
+19.9 +16.2 79 +22 +22 комфорт 1016.3 981.5
21 17.10 В 7 н/о н/о +20.8 +16.2 75 +24 +24 комфорт 1016.7 981.9
23 17.10 В 9 н/о 10/10 600 м
[]
+23.5 +16.1 63 +27 +27 душно 1017.5 982.7
00 18.10 В 7 н/о н/о +25.3 +16.2 57 +29 +29 душно 1017.3 982.5
02 18.10 В 8 н/о 10/10 1000 м
[]
+27.2 +16.2 51 +31 +31 душно 1016.2 981.4 +18.5
03 18.10 В 8 н/о н/о +28.7 +15.6 45 +32 +32 душно 1015.4 980.6
05 18.10 В 10 н/о 1/1 1000 м
[]
+27.8 +16.4 50 +31 +32 душно 1014.1 979.4
06 18.10 В 9 н/о н/о +27.6 +17.2 53 +32 +32 очень
душно
1014.2 979.5
08 18.10 В 10 н/о 3/3 600 м
[]
+24.3 +18.0 68 +29 +29 душно 1015.4 980.6
09 18.10 В 8 н/о н/о +23.3 +17.5 70 +29 +29 душно 1016.8 982.0
11 18.10 В 7 н/о 9/9 1500 м
[]
+22.9 +17.6 72 +28 +28 душно 1018.5 983.6
12 18.10 В 6 н/о н/о +22.3 +17.7 75 +27 +27 душно 1019.1 984.2
14 18.10 СВ 7 н/о 10/10 600 м
[]
+22.4 +16.7 70 +27 +27 душно 1019.2 984.3 +30.1
15 18.10 В 7 н/о н/о +22.0 +16.5 71 +26 +26 душно 1018.9 984.0
17 18.10 СВ 5 н/о н/о +21.3 +16.0 72 +25 +25 комфорт 1018.0 983.2
18 18.10 СВ 4 н/о н/о +21.2 +16.0 72 +25 +25 комфорт 1018.2 983.3
20 18.10 В 5 н/о н/о +21.1 +15.9 72 +24 +24 комфорт 1018.9 984.0
21 18.10 В 6 н/о н/о +22.1 +15.7 67 +26 +26 душно 1019.7 984.8
23 18.10 В 6 н/о 10/10 600 м
[]
+24.6 +15.8 58 +28 +28 душно 1020.5 985.6
00 19.10 СВ 6 н/о н/о +25.6 +15.6 54 +29 +29 душно 1020.2 985.3
02 19.10 СВ 4 н/о 10/10 1000 м
[]
+27.5 +14.8 46 +30 +30 жарко 1019.0 984.1 +21.1
03 19.10 СВ 4 н/о н/о +28.9 +13.9 40 +31 +31 жарко 1018.3 983.4
05 19.10 В 3 н/о 10/0 2000 м
[]
+29.5 +14.1 39 +31 +36 жарко 1017.0 982.2
06 19.10 СВ 3 н/о н/о +30.2 +13.9 37 +32 +32 жарко 1016.3 981.5
08 19.10 С 8 н/о 10/10 1500 м
[]
+26.5 +16.7 55 +30 +30 душно 1017.5 982.7
09 19.10 С 4 н/о н/о +25.4 +17.3 61 +29 +29 душно 1018.4 983.5
11 19.10 СВ 4 н/о 3/0
[]
+24.9 +17.9 65 +29 +29 душно 1018.9 984.0
12 19.10 СВ 4 н/о н/о +23.9 +18.1 70 +28 +28 душно 1019.1 984.2
14 19.10 СВ 3 н/о н/о +23.1 +15.4 62 +27 +27 душно 1018.6 983.7 +31.1
15 19.10 СВ 3 н/о н/о +22.3 +15.4 65 +26 +26 жарко 1017.9 983.1
17 19.10 СВ 2 н/о н/о +20.7 +15.5 72 +24 +24 комфорт 1017.2 982.4
18 19.10 С 2 н/о н/о +20.4 +15.6 74 +24 +24 комфорт 1017.3 982.5
20 19.10 СВ 3 н/о н/о +20.0 +16.0 78 +23 +23 комфорт 1018.0 983.2
21 19.10 С 3 н/о н/о +21.7 +16.2 71 +25 +25 комфорт 1018.8 983.9
23 19.10 С 5 н/о 10/10 600 м
[]
+24.2 +16.7 63 +28 +28 душно 1019.4 984.5
00 20.10 СЗ 5 н/о н/о +25.3 +16.2 57 +29 +29 душно 1019.6 984.7
02 20.10 ЮЗ 7 9000 м туман местами 10/10 300 м
[]
+21.7 +18.1 80 +26 +26 душно 1018.9 984.0 +19.9
03 20.10 ЮЗ 5 н/о н/о +22.2 +18.6 80 +27 +27 душно 1018.4 983.5
05 20.10 СВ 2 н/о в посл. час дождь {туман} 10/10 1000 м
[]
+21.1 +18.5 85 +25 +25 комфорт 1016.4 981.6
06 20.10 ЮЗ 3 н/о н/о +21.7 +19.1 85 +27 +27 душно 1016.3 981.5
08 20.10 ЮЗ 3 н/о {туман} 9/0
[]
+22.9 +18.0 74 +28 +29 душно 1016.5 981.7
09 20.10 ЮЗ 3 н/о н/о +22.4 +18.4 78 +28 +28 душно 1016.7 981.9
11 20.10 Ю 4 н/о в посл. час дождь {туман} 10/10 600 м
[]
+20.1 +17.3 84 +23 +23 комфорт 1018.4 983.5
12 20.10 Ю 4 н/о н/о +20.0 +16.2 79 +23 +23 комфорт 1016.4 981.6
14 20.10 ЮЗ 3 н/о 10/10 300 м
[]
+20.1 +17.3 84 +23 +23 комфорт 1017.4 982.6 +26.2
15 20.10 Ю 4 н/о н/о +20.0 +17.0 83 +23 +23 комфорт 1016.2 981.4
17 20.10 Ю 8 4000 м туман местами 8/8 200 м
[]
+17.2 +15.7 91 +16 +16 1015.8 981.0
18 20.10 Ю 6 н/о н/о +16.5 +15.0 91 +15 +15 1015.8 981.0
20 20.10 Ю 5 н/о {туман} 10/10 600 м
[]
+16.8 +15.3 91 +16 +16 1016.5 981.7
21 20.10 ЮВ 5 н/о н/о +17.1 +14.7 86 +16 +16 1017.0 982.2
23 20.10 Ю 6 н/о {туман} 1/1 600 м
[]
+21.2 +13.6 62 +24 +28 комфорт 1016.8 982.0
00 21.10 ЮВ 5 н/о н/о +22.5 +10.6 47 +24 +24 комфорт 1016.7 981.9
02 21.10 Ю 5 н/о н/о +25.3 +7.9 33 +25 +25 комфорт 1015.5 980.7 +16.5
03 21.10 Ю 6 н/о н/о +25.9 +7.5 31 +26 +26 жарко 1014.5 979.8
05 21.10 Ю 4 н/о н/о +27.1 +3.6 22 +26 +26 жарко 1013.0 978.3
06 21.10 Ю 5 н/о н/о +27.1 +2.9 21 +26 +26 жарко 1012.6 977.9

 

Местоположение метеостанции Charleville Aero (Квинсленд, Австралия): широта -26.41 долгота 146.26 высота над уровнем моря 303 м.

В архиве по умолчанию представлена погода в Charleville Aero за последнюю неделю. Архивные данные за месяц целиком и за предыдущие месяцы, начиная с января 2011 года, Вы можете получить, выбрав интересующий диапазон дат из раскрывающегося списка и нажав кнопку "Ввод!".

Внимание! Время в таблицах - всемирное. Для получения местного времени необходимо прибавить поправку, которая в Charleville Aero равна 10 ч.

Смотрите также архив погоды в соседних городах и на ближайших метеорологических станциях:

Погода в Blackall Airport (Квинсленд, Австралия) (237 км)
Погода в Roma Airport (Квинсленд, Австралия) (251 км)
Погода в St George Airport (Квинсленд, Австралия) (295 км)
Погода в Thargomindah Airport (Квинсленд, Австралия) (299 км)
Погода в Lochington (Квинсленд, Австралия) (304 км)
Погода в Rolleston Airport (Квинсленд, Австралия) (321 км)
Погода в Emerald Airport (Квинсленд, Австралия) (371 км)
Погода в Longreach Airport (Квинсленд, Австралия) (387 км)
Погода в Miles Constance Street (Квинсленд, Австралия) (391 км)
Погода в Bourke Airport Aws (Новый Южный Уэльс, Австралия) (404 км)

Пояснения к столбцам:

Ветер - указаны скорость ветра в м/с - средняя за 10 мин, порывы в срок и между сроками (в фигурных скобках) и направление, откуда дует ветер: С - северный, СВ - северо-восточный, В - восточный, ЮВ - юго-восточный, Ю - южный, ЮЗ - юго-западный, З - западный, СЗ - северо-западный.
Видимость - горизонтальная дальность видимости в метрах или километрах. При видимости от 1 до 10 км при отсутствии осадков обычно наблюдается дымка, при ухудшении видимости до 1 км и менее - туман. В сухую погоду видимость может ухудшаться дымом, пылью или мглою.
Явления - указаны атмосферные явления, наблюдавшиеся в срок или в последний час перед сроком; фигурными скобками обозначены явления, наблюдавшиеся между сроками (за 1-3 часа до срока); квадратными скобками обозначены град или гололедные отложения с указанием их диаметра в мм.
Облачность - указаны через наклонную черту общая и нижняя облачность в баллах и высота нижней границы облаков в метрах; квадратными скобками обозначены формы облаков: Ci - перистые, Cs - перисто-слоистые, Cc - перисто-кучевые, Ac - высококучевые, As - высокослоистые, Sc - слоисто-кучевые, Ns - слоисто-дождевые, Cu - кучевые, Cb - кучево-дождевые. Подробнее классификацию облаков см. в Атласе облаков (PDF).
T - Температура воздуха - температура, измеренная на высоте 2 м над землей.
Td - Температура точки росы - температура, при понижении до которой содержащийся в воздухе водяной пар достигнет насыщения.
f - Относительная влажность воздуха - влажноcть воздуха, измеренная на высоте 2 м над землей.
Te - Эффективная температура - температура, которую ощущает одетый по сезону человек в тени. Характеристика душности погоды. При расчете учитывается влияние влажности воздуха и скорости ветра на теплоощущения человека.
Tes - Эффективная температура на солнце - температура, которую ощущает человек, с поправкой на солнечный нагрев. Характеристика знойности погоды. Зависит от высоты солнца над горизонтом, облачности и скорости ветра. Ночью, в пасмурную погоду, а также при ветре 12 м/с и более поправка равна нулю.
P - Атмосферное давление - приведенное к уровню моря атмосферное давление.
Po - Атмосферное давление - измеренное на уровне метеостанции атмосферное давление.
Tmin - Минимальная температура - минимум температуры воздуха на высоте 2 м над землей.
Tmax - Максимальная температура - максимум температуры воздуха на высоте 2 м над землей.
R - Количество осадков - Количество выпавших осадков за период времени, мм. При наведении курсора мыши на число - период времени, за который выпало указанное количество осадков.
R24 - Количество осадков - Количество выпавших осадков за 24 часа, мм.
S - Снежный покров - Высота снежного покрова, см. При наведении курсора мыши на число - состояние снежного покрова и степень покрытия местности в баллах.